This is the latest recevied weather packets stored in our database for station/object N7ZAP. If no packets are shown the sender has not sent any weather packets the latest 10 day(s).
| Time | Temp. | Humidity | Pressure | Rain* | Wind** | Luminosity | Snow |
|---|---|---|---|---|---|---|---|
| 1777134626 | 21.67° C | 17% | 1013.7 hPa | 0 mm | - | - | - |
| 1777134321 | 21.67° C | 17% | 1013.7 hPa | 0 mm | - | - | - |
| 1777134019 | 21.11° C | 18% | 1013.3 hPa | 0 mm | - | - | - |
| 1777133715 | 20.56° C | 19% | 1013.4 hPa | 0 mm | - | - | - |
| 1777133415 | 20° C | 19% | 1013.4 hPa | 0 mm | - | - | - |
| 1777133109 | 20.56° C | 18% | 1013.6 hPa | 0 mm | - | - | - |
| 1777132805 | 21.11° C | 18% | 1013.3 hPa | 0 mm | - | - | - |
| 1777132502 | 21.11° C | 17% | 1013.6 hPa | 0 mm | - | - | - |
| 1777132198 | 20° C | 18% | 1013.3 hPa | 0 mm | - | - | - |
| 1777131894 | 19.44° C | 18% | 1013.8 hPa | 0 mm | - | - | - |
| 1777131593 | 19.44° C | 18% | 1013.4 hPa | 0 mm | - | - | - |
| 1777131286 | 20° C | 17% | 1013.8 hPa | 0 mm | - | - | - |
| 1777130985 | 20.56° C | 17% | 1013.7 hPa | 0 mm | - | - | - |
| 1777130683 | 21.11° C | 17% | 1013.8 hPa | 0 mm | - | - | - |
| 1777130379 | 20° C | 17% | 1013.8 hPa | 0 mm | - | - | - |
| 1777130075 | 20° C | 17% | 1013.7 hPa | 0 mm | - | - | - |
| 1777129772 | 19.44° C | 17% | 1013.6 hPa | 0 mm | - | - | - |
| 1777129472 | 18.33° C | 18% | 1013.9 hPa | 0 mm | - | - | - |
| 1777129171 | 18.33° C | 18% | 1013.8 hPa | 0 mm | - | - | - |
| 1777128867 | 18.33° C | 19% | 1014 hPa | 0 mm | - | - | - |
| 1777128564 | 17.78° C | 19% | 1014 hPa | 0 mm | - | - | - |
| 1777128260 | 17.22° C | 20% | 1013.9 hPa | 0 mm | - | - | - |
| 1777127959 | 16.67° C | 21% | 1013.8 hPa | 0 mm | - | - | - |
| 1777127656 | 16.11° C | 21% | 1013.9 hPa | 0 mm | - | - | - |
| 1777127352 | 16.67° C | 20% | 1014 hPa | 0 mm | - | - | - |
* Rain latest hour (hover to see other rain measurements)
** Current wind speed in m/s (hover to see current wind gust speed)